Theta_e
304 309 313 316 319 323 323 323 323 323 322 322 321 319 316 314 313 310 307 305 304 301 300 300 297 297 296 296 295 294 291 291 289 288 289 288 287 286 287 288 288 287 287
305 305 306 310 312 316 318 320 320 319 317 316 313 311 309 307 306 305 302 301 300 298 296 296 295 295 293 293 292 290 289 289 288 286 287 286 286 286 286 285 287 288 286
303 303 303 304 305 305 307 313 312 310 308 307 307 306 304 302 301 300 300 298 297 296 295 294 293 292 290 289 289 289 288 288 287 285 284 285 285 284 282 283 284 283 287
302 302 300 301 303 303 302 303 305 305 304 303 303 302 300 298 297 294 295 294 294 293 293 292 291 290 288 287 287 287 286 285 284 283 282 282 282 283 280 279 279 279 281
301 300 300 302 303 301 297 296 298 298 298 297 296 294 294 294 293 291 291 291 291 290 289 289 289 288 289 289 287 285 285 284 283 281 281 280 279 280 280 279 278 279 281
299 298 297 297 295 295 294 292 291 290 291 291 290 290 289 289 293 292 291 289 288 287 286 285 285 285 288 290 290 289 288 284 280 280 279 279 281 280 279 280 282 280 274
297 294 293 292 291 290 290 289 289 289 289 289 288 288 288 289 292 292 289 287 286 286 285 284 284 285 285 285 288 288 287 288 287 283 279 281 281 281 281 279 281 281 279
291 289 290 290 289 288 288 288 287 287 287 287 287 287 287 288 292 290 288 286 285 284 284 284 284 284 285 284 284 283 283 284 284 284 283 282 283 282 282 284 282 281 277
288 288 287 289 287 287 287 286 286 286 286 286 286 286 286 287 290 290 287 285 284 284 285 284 284 284 286 287 284 282 282 283 287 287 286 286 286 286 285 275 271 277 270
288 287 286 286 287 287 286 285 285 286 285 286 285 286 286 286 290 289 286 285 284 283 284 284 284 284 287 288 283 281 278 280 280 278 280 282 283 282 283 280 279 270 274
285 285 283 283 283 286 285 285 285 285 285 285 285 284 285 286 286 289 288 284 284 283 283 282 283 287 287 287 287 281 279 280 279 274 275 275 276 276 275 276 276 272 267
283 282 280 280 282 283 285 285 285 285 285 284 284 283 282 282 285 289 289 287 287 284 283 283 283 286 287 287 285 285 285 279 270 269 268 269 271 271 273 272 272 271 271
281 281 281 282 282 283 283 284 284 285 284 283 283 281 280 281 282 288 288 288 288 284 283 284 285 286 286 286 286 284 275 268 268 266 267 270 271 272 270 267 266 266 266
280 278 279 281 281 281 282 282 282 281 280 279 280 281 281 281 281 283 284 285 285 283 284 281 283 283 282 279 276 279 273 272 271 268 268 268 268 265 264 266 264 264 262
279 278 279 279 279 279 279 279 280 280 282 280 280 282 282 281 282 284 284 281 281 282 277 274 275 277 271 270 269 270 271 268 268 266 264 264 265 266 265 264 263 260 261
277 277 276 276 275 277 277 276 283 283 284 284 285 285 282 284 286 286 287 287 287 286 279 278 277 276 274 274 273 272 272 270 270 268 266 265 266 265 263 262 262 259 259
277 275 275 276 275 274 274 276 275 277 281 282 283 284 284 284 284 286 286 287 287 286 280 278 277 276 275 275 274 274 272 271 269 269 268 266 265 262 262 260 261 261 259
273 274 273 273 274 274 275 275 276 277 276 276 280 282 283 283 284 283 285 285 281 283 281 278 277 277 275 274 273 272 271 266 267 267 266 266 263 261 259 261 262 259 257
272 271 270 271 271 272 272 272 272 272 272 274 276 279 279 283 284 283 284 280 279 279 280 280 279 277 275 273 272 270 271 269 267 265 266 266 266 264 262 263 264 261 260
268 270 269 269 269 269 269 269 269 269 271 274 275 276 276 272 274 278 276 278 281 280 279 278 275 275 273 268 269 270 270 269 268 268 267 267 266 264 264 264 264 264 261
268 266 268 266 266 266 266 266 266 266 267 268 269 271 278 269 270 273 278 279 279 280 281 279 277 275 273 271 270 270 270 269 268 267 266 266 266 264 265 265 264 263 262
264 263 263 263 263 264 263 264 265 265 264 265 265 267 278 268 271 269 271 276 278 280 279 277 275 272 271 271 270 269 269 268 268 267 266 266 266 265 265 264 263 263 262
264 262 262 261 262 262 261 260 261 261 261 261 261 262 262 262 262 263 265 267 269 273 268 271 273 272 271 270 270 270 269 268 268 268 266 266 265 264 264 263 263 262 262
261 260 259 258 258 258 258 258 259 260 260 259 258 259 259 259 259 261 262 262 262 267 264 263 264 267 269 269 268 268 268 268 268 267 267 265 264 264 264 263 262 262 262
257 256 256 256 255 256 257 257 257 256 256 257 257 257 257 257 258 258 259 259 259 257 259 261 261 261 263 266 265 265 266 268 267 267 266 266 264 264 263 262 262 261 261
254 254 254 254 254 253 254 255 255 256 256 256 257 256 257 258 258 258 258 259 260 258 258 259 262 263 263 263 264 265 266 267 266 266 265 264 263 262 262 261 261 261 260
Wind_Speed
5 4 4 3 4 5 5 4 4 3 6 6 6 7 7 7 7 7 7 8 7 7 5 7 6 5 3 3 4 3 3 3 3 1 2 2 3 3 4 4 4 4 5
4 3 2 2 2 3 3 5 5 6 5 6 6 5 6 6 6 7 8 7 9 8 8 8 8 5 5 5 3 4 3 3 3 3 2 2 2 1 2 4 4 3 4
3 4 4 4 5 5 5 5 5 6 5 5 6 7 7 6 6 6 8 9 9 8 7 10 10 8 6 4 4 4 3 3 3 3 2 1 1 2 2 3 3 5 4
5 3 3 3 4 3 4 5 5 5 6 5 5 6 8 8 7 7 8 8 10 8 8 7 7 8 8 7 5 5 4 4 3 3 1 1 1 1 2 1 3 2 5
6 4 4 2 0 3 2 2 3 3 4 5 7 6 6 6 6 9 9 10 10 10 7 7 5 6 8 7 5 6 6 3 3 2 1 1 1 1 1 2 2 4 7
6 6 6 5 4 3 3 3 4 4 4 5 6 6 7 4 13 13 11 8 8 10 9 7 6 7 9 10 10 9 7 5 4 3 2 2 2 2 1 0 4 7 5
6 6 6 6 5 5 5 5 4 4 4 4 5 6 5 6 14 14 13 7 8 8 8 9 6 4 6 7 9 10 7 7 5 4 4 4 3 2 1 2 2 4 8
5 5 5 5 6 5 5 5 5 3 3 3 4 5 7 5 11 14 13 8 7 7 7 8 8 7 6 7 6 5 5 4 4 3 4 3 3 3 3 2 1 6 5
6 6 6 6 6 6 6 6 4 4 4 4 4 5 6 5 12 14 10 7 7 5 4 5 7 7 10 12 6 5 4 3 4 7 5 6 5 4 2 3 2 2 4
6 6 6 6 6 6 6 6 3 5 4 4 5 5 8 7 12 12 8 5 6 5 4 6 8 6 13 13 6 5 4 4 4 1 1 1 1 1 1 2 2 2 2
5 5 5 4 5 6 6 3 5 5 5 4 4 3 3 7 8 11 9 3 5 5 5 4 3 11 12 12 10 5 6 5 5 3 2 1 1 2 2 2 3 3 3
6 6 4 4 4 4 6 4 5 6 5 4 5 3 3 1 5 10 9 6 8 5 5 4 5 12 12 12 8 10 8 5 3 1 1 2 2 2 2 2 1 2 3
6 5 5 6 5 4 4 5 4 4 4 4 4 3 2 0 1 9 9 10 9 3 4 7 11 12 13 11 12 10 6 3 3 3 3 3 3 3 2 1 2 1 3
6 5 4 5 5 4 4 4 4 3 3 4 3 2 1 1 2 1 3 3 6 4 5 4 6 6 7 6 2 6 3 4 4 3 3 2 2 1 1 2 2 1 1
6 4 4 4 5 5 4 3 3 2 4 3 1 2 4 5 5 7 6 4 4 6 5 2 1 2 1 1 2 3 4 3 3 2 3 3 2 2 2 2 2 1 3
5 4 3 3 3 3 3 3 7 6 3 3 2 4 2 3 9 14 14 15 15 15 3 4 5 6 7 7 7 6 6 7 5 4 4 3 4 4 3 2 2 3 3
5 4 3 4 3 3 2 2 2 2 1 3 6 6 6 2 4 8 12 13 14 14 5 6 7 8 8 7 7 7 7 7 6 6 6 5 4 3 3 3 3 3 2
6 6 3 3 3 3 2 2 2 2 1 1 6 7 7 7 8 8 11 11 6 11 8 7 7 7 6 7 6 6 5 4 5 6 5 6 5 4 3 4 4 4 3
5 4 3 3 3 3 2 2 2 1 1 2 0 1 2 8 9 10 13 7 8 8 8 9 8 6 6 5 5 4 6 6 6 5 6 7 7 6 5 6 5 6 5
4 6 5 3 3 2 1 1 0 1 2 2 2 2 1 1 2 4 4 4 7 8 6 8 6 6 6 5 4 5 5 6 6 6 7 7 6 6 7 7 7 6 5
3 4 5 4 3 2 2 2 1 2 3 3 3 2 4 3 2 2 4 6 8 8 8 8 7 7 7 6 6 6 8 8 8 8 8 7 7 8 7 6 5 6 5
3 3 3 2 2 3 2 2 2 1 2 3 3 3 10 2 1 2 3 6 7 7 4 4 3 5 6 7 7 8 8 8 7 7 8 7 7 7 6 6 6 6 6
4 4 4 3 3 4 3 3 2 2 2 3 3 3 3 2 3 3 3 4 4 6 3 2 4 4 3 5 6 7 8 8 7 7 7 7 7 7 7 7 7 7 6
3 3 3 3 3 3 3 4 4 5 3 3 3 3 3 3 3 4 4 4 4 4 3 2 2 5 6 5 4 5 5 5 4 6 9 8 7 7 7 7 7 8 6
3 3 3 2 2 2 2 3 3 3 3 3 3 2 3 3 4 4 4 4 4 3 4 4 3 4 7 10 7 7 8 10 9 7 6 8 8 8 7 7 7 6 7
3 3 2 2 2 2 2 2 2 2 3 3 3 3 3 3 4 4 4 4 4 4 5 3 4 8 8 8 9 10 10 11 10 11 7 6 6 6 6 8 9 6 7
Wind_Direction
212 212 196 205 193 176 186 186 180 162 160 167 167 163 161 161 154 144 139 138 145 127 125 132 114 123 132 109 97 89 82 82 112 335 97 77 66 43 0 3 356 352 335
181 151 147 165 176 176 189 200 186 185 178 161 151 149 150 151 148 141 139 134 138 143 132 126 131 127 118 112 102 106 106 79 126 134 118 90 96 36 36 347 336 341 319
124 149 171 183 179 198 211 177 153 140 135 134 145 157 153 149 138 133 145 142 129 134 134 140 138 141 132 131 126 126 116 96 93 110 115 105 166 99 10 354 340 316 299
158 164 181 204 182 173 142 150 147 151 157 161 162 150 148 141 135 127 127 130 129 135 123 126 141 149 144 144 140 143 132 124 107 100 117 158 146 185 101 125 313 289 295
170 173 174 195 101 73 97 101 115 145 136 138 130 115 115 127 141 140 132 141 132 122 113 107 112 124 135 139 149 158 141 121 117 127 127 97 99 39 195 229 259 299 303
169 166 135 133 103 118 109 106 100 98 105 114 115 124 128 121 144 139 141 131 121 122 126 116 121 119 125 123 143 140 144 138 133 140 165 151 197 201 185 128 336 344 332
168 150 152 141 140 137 128 121 120 125 109 118 124 125 125 115 134 129 123 125 130 132 139 135 131 135 125 125 132 126 120 132 142 159 164 188 188 163 271 294 332 311 291
141 139 146 142 133 125 117 120 106 101 103 92 96 100 104 103 126 125 114 117 121 133 147 147 139 154 151 148 144 141 150 158 172 183 180 192 198 234 227 202 283 298 304
161 164 161 147 137 141 134 123 90 95 90 97 103 94 102 114 140 138 128 127 123 126 124 134 147 149 170 172 151 152 163 188 195 182 196 230 245 284 18 71 340 323 307
177 174 156 144 141 142 141 138 134 129 127 128 130 147 144 148 160 152 135 129 133 131 137 153 153 165 182 182 159 162 171 200 169 209 274 248 217 134 248 167 179 183 271
126 124 114 121 133 136 126 109 118 114 108 93 92 63 124 147 156 161 156 137 139 149 164 147 159 187 189 193 182 166 184 157 186 154 218 229 200 187 202 108 102 145 172
122 110 98 94 100 123 126 113 116 124 125 129 125 91 53 52 147 172 173 161 170 159 169 163 177 194 192 196 185 185 182 152 126 149 174 238 217 180 153 126 185 228 207
103 113 114 105 103 95 109 110 110 115 131 135 151 144 165 132 134 178 189 195 185 145 139 172 184 195 199 205 203 189 153 141 168 174 208 216 194 164 136 346 337 314 288
100 100 100 108 105 95 87 105 120 130 119 126 136 143 137 181 210 200 192 195 193 143 154 161 184 182 169 154 160 195 161 192 189 195 206 200 147 101 191 188 157 269 30
92 91 95 104 118 106 92 114 116 120 135 147 175 154 170 210 218 201 183 177 161 159 121 89 103 140 161 182 232 200 201 183 192 201 185 197 201 188 205 185 171 179 176
91 93 97 95 74 93 109 78 72 77 96 96 128 184 207 175 195 200 204 203 193 182 158 192 204 211 216 214 214 214 207 203 209 201 196 193 204 204 200 226 175 176 204
97 89 86 95 107 113 93 125 151 21 74 239 226 233 237 210 229 216 216 212 213 207 208 215 217 214 219 215 213 208 212 208 189 197 198 196 191 194 179 215 224 189 246
70 71 80 87 103 105 123 150 140 148 182 290 243 239 245 246 232 230 225 210 216 225 224 221 226 227 220 224 218 217 210 172 189 197 199 199 191 172 181 208 210 194 201
62 49 55 70 68 79 93 93 106 97 159 242 176 234 281 252 240 238 234 219 219 223 225 228 226 215 209 218 219 210 211 206 196 187 208 212 205 190 206 211 217 203 184
62 62 53 50 51 54 74 105 91 220 234 234 239 228 184 89 237 220 219 223 232 237 232 233 218 221 223 200 201 205 208 216 213 207 213 210 207 202 213 214 213 219 215
47 52 41 42 42 23 28 32 347 350 313 300 289 270 241 186 256 273 266 242 246 252 250 238 223 216 212 203 205 212 219 222 215 209 210 203 202 208 210 210 211 212 217
61 67 58 58 13 28 28 12 347 327 299 302 298 309 300 319 240 248 274 280 283 282 287 270 235 210 208 209 210 219 225 226 221 212 213 212 207 205 203 207 205 212 213
48 37 26 21 27 16 9 356 343 318 306 302 306 317 325 286 271 268 267 265 272 279 265 252 258 253 234 226 222 223 230 231 224 212 212 208 202 201 201 207 204 202 210
47 53 48 22 28 15 3 348 341 331 325 309 305 296 286 284 285 280 279 287 299 295 303 294 285 271 274 254 240 232 237 238 213 213 212 209 212 208 206 203 205 207 205
52 51 62 51 37 0 331 321 327 325 319 301 298 297 296 298 303 297 293 296 294 292 290 289 256 253 263 265 253 237 236 241 234 223 219 219 214 207 206 210 208 208 206
57 58 52 36 21 6 4 342 321 318 314 307 303 299 293 293 288 290 294 295 290 286 283 278 272 261 261 262 260 256 246 241 235 228 211 206 204 205 205 207 215 219 214